This is the latest recevied weather packets stored in our database for station/object N6RDS. If no packets are shown the sender has not sent any weather packets the latest 10 day(s).
| Time | Temp. | Humidity | Pressure | Rain* | Wind** | Luminosity | Snow |
|---|---|---|---|---|---|---|---|
| 1777664325 | 16.67° C | 24% | 1023.9 hPa | 0 mm | - | 190 W/m² | - |
| 1777664023 | 17.22° C | 24% | 1023.7 hPa | 0 mm | - | 229 W/m² | - |
| 1777663721 | 16.67° C | 26% | 1024 hPa | 0 mm | - | 394 W/m² | - |
| 1777663418 | 16.67° C | 24% | 1023.8 hPa | 0 mm | - | 242 W/m² | - |
| 1777663114 | 16.11° C | 25% | 1024 hPa | 0 mm | - | 231 W/m² | - |
| 1777662812 | 16.11° C | 25% | 1023.9 hPa | 0 mm | - | 150 W/m² | - |
| 1777662508 | 16.67° C | 26% | 1023.9 hPa | 0 mm | - | 171 W/m² | - |
| 1777662205 | 16.67° C | 25% | 1024 hPa | 0 mm | - | 230 W/m² | - |
| 1777661900 | 16.11° C | 26% | 1024 hPa | 0 mm | - | 324 W/m² | - |
| 1777661596 | 16.11° C | 24% | 1024.4 hPa | 0 mm | - | 176 W/m² | - |
| 1777661292 | 16.67° C | 25% | 1024.3 hPa | 0 mm | - | 146 W/m² | - |
| 1777660988 | 17.22° C | 24% | 1024.4 hPa | 0 mm | - | 237 W/m² | - |
| 1777660684 | 17.78° C | 24% | 1024.2 hPa | 0 mm | - | 230 W/m² | - |
| 1777660381 | 17.22° C | 24% | 1024.2 hPa | 0 mm | - | 803 W/m² | - |
| 1777660077 | 17.22° C | 24% | 1024.4 hPa | 0 mm | - | 289 W/m² | - |
| 1777659774 | 17.22° C | 23% | 1024.5 hPa | 0 mm | - | 219 W/m² | - |
| 1777659471 | 17.22° C | 23% | 1024.5 hPa | 0 mm | - | 209 W/m² | - |
| 1777659168 | 19.44° C | 22% | 1024.3 hPa | 0 mm | - | 225 W/m² | - |
| 1777658866 | 19.44° C | 21% | 1024.4 hPa | 0 mm | - | 915 W/m² | - |
| 1777658562 | 19.44° C | 22% | 1024.5 hPa | 0 mm | - | 873 W/m² | - |
| 1777658258 | 18.33° C | 23% | 1024.8 hPa | 0 mm | - | 819 W/m² | - |
| 1777657956 | 18.89° C | 23% | 1024.8 hPa | 0 mm | - | 847 W/m² | - |
| 1777657652 | 18.89° C | 23% | 1024.8 hPa | 0 mm | - | 363 W/m² | - |
| 1777657349 | 17.22° C | 24% | 1024.5 hPa | 0 mm | - | 769 W/m² | - |
| 1777657047 | 18.33° C | 22% | 1024.9 hPa | 0 mm | - | 522 W/m² | - |
* Rain latest hour (hover to see other rain measurements)
** Current wind speed in m/s (hover to see current wind gust speed)